Flag for Germany Weather past 2 weeks in Bingen am Rhein, Rhineland-Palatinate, Germany

Now
63 °F

Cloudy.


Feels Like: 63 °F
Forecast: 45 / 70 °F
Wind: 9 mph from Northwest

Location: Wiesbaden Airport

Current Time: Sep 1, 2014 at 1:16:14 PM

Latest Report: Sep 1, 2014 at 11:58 AM


Visibility: N/A

Pressure: 30.15 "Hg

Humidity: 73%

Dew point: 54 °F

Location of Bingen am RheinLocation

Historic Weather in Bingen am Rhein — Graph

°F

Bingen am Rhein temperature yesterday

Maximum temperature yesterday: 66 °F (at 1:58 PM)
Minimum temperature yesterday: 56 °F (at 11:58 PM)
Average temperature yesterday: 60 °F

Past Weeks' High & Low Weather Summary

 TemperatureHumidityPressure
High75 °F (Aug 29, 4:58 PM)100% (Aug 19, 2:58 AM)30.15 "Hg (Aug 19, 2:58 AM)
Low45 °F (Aug 22, 6:58 AM)43% (Aug 21, 6:58 PM)29.66 "Hg (Aug 26, 8:04 AM)
Average59 °F77%29.97 "Hg
* Reported Aug 17 11:58 AM — Sep 1 11:58 AM, Bingen am Rhein, Weather by CustomWeather, © 2014

Note: Actual official high and low records may vary slightly from our data, if they occured in-between our weather recording intervals... More about our weather records

Advertising

Bingen am Rhein weather history for previous 24 hours

 ConditionsComfort  
Time TempWeatherWind HumidityBarometerVisibility
11:58 AM
Sep 1
63 °FCloudy.9 mph73%30.15 "HgN/A
10:58 AM62 °FOvercast.6 mph71%30.14 "HgN/A
9:58 AM62 °FPassing clouds.No wind69%30.13 "HgN/A
8:58 AM56 °FPassing clouds.2 mph81%30.12 "HgN/A
7:58 AM55 °FPartly sunny.7 mph86%30.11 "HgN/A
6:58 AM54 °FClear.6 mph88%30.10 "HgN/A
5:58 AM54 °FMostly cloudy.6 mph94%30.09 "HgN/A
4:58 AM52 °FPassing clouds.2 mph94%30.09 "HgN/A
3:58 AM54 °FOvercast.2 mph94%30.07 "HgN/A
2:58 AM53 °FClear.6 mph91%30.07 "HgN/A
1:58 AM54 °FClear.3 mph94%30.05 "HgN/A
12:58 AM55 °FPassing clouds.6 mph88%30.05 "HgN/A
11:58 PM
Aug 31
56 °FOvercast.3 mph88%30.04 "HgN/A
10:59 PM57 °FOvercast.1 mph88%30.03 "HgN/A
9:58 PM57 °FPassing clouds.5 mph88%30.01 "HgN/A
9:02 PM57 °FLight rain. Partly sunny.7 mph88%30.01 "HgN/A
8:58 PM57 °FPartly sunny.6 mph88%30.00 "HgN/A
7:58 PM58 °FOvercast.6 mph85%29.98 "HgN/A
6:58 PM59 °FMostly cloudy.6 mph86%29.97 "HgN/A
5:58 PM59 °FBroken clouds.8 mph85%29.96 "HgN/A
4:58 PM59 °FRain. Overcast.9 mph85%29.96 "HgN/A
3:58 PM59 °FLight rain. Overcast.6 mph85%29.96 "HgN/A
2:58 PM64 °FPartly sunny.12 mph73%29.94 "HgN/A
1:58 PM66 °FScattered clouds.7 mph60%29.94 "HgN/A
Weather by CustomWeather, © 2014

See weather overviewHow to use our weather pages